When you browse on this site, cookies collect data to enhance your experience and personalize the content and advertising you see.
Visit our Privacy Policy to learn more. By continuing to use the site, you agree to this use of cookies and data.

Hourly Weather Novaya Lokna

Today, 10 July, Friday

Time Temperature Precipitation Wind Pressure Humidity
00:00 +13°C° 0 mm 2 mps 745 mmHg 93%
01:00 +12°C° 0 mm 2 mps 746 mmHg 94%
02:00 +12°C° 0 mm 2 mps 746 mmHg 94%
03:00 +12°C° 0 mm 2 mps 746 mmHg 93%
04:00 +12°C° 0 mm 2 mps 746 mmHg 92%
05:00 +13°C° 0 mm 2 mps 747 mmHg 91%
06:00 +14°C° 0 mm 1 mps 747 mmHg 85%
07:00 +16°C° 0 mm 1 mps 747 mmHg 79%
08:00 +18°C° 0 mm 1 mps 747 mmHg 73%
09:00 +19°C° 0 mm 1 mps 748 mmHg 69%
10:00 +19°C° 0 mm 2 mps 748 mmHg 65%
11:00 +20°C° 0 mm 2 mps 748 mmHg 60%
12:00 +21°C° 0 mm 2 mps 748 mmHg 59%
13:00 +21°C° 0 mm 2 mps 747 mmHg 59%
14:00 +21°C° 0 mm 2 mps 747 mmHg 58%
15:00 +21°C° 0 mm 2 mps 747 mmHg 61%
16:00 +21°C° 0 mm 2 mps 747 mmHg 65%
17:00 +21°C° 0 mm 2 mps 747 mmHg 69%
18:00 +20°C° 0 mm 2 mps 747 mmHg 72%
19:00 +18°C° 0 mm 2 mps 747 mmHg 76%
20:00 +17°C° 0 mm 2 mps 748 mmHg 79%
21:00 +16°C° 0 mm 2 mps 748 mmHg 81%
22:00 +16°C° 0 mm 2 mps 748 mmHg 82%
23:00 +14°C° 0 mm 3 mps 748 mmHg 83%

Tomorrow, 11 July, Saturday

Time Temperature Precipitation Wind Pressure Humidity
00:00 +14°C° 0 mm 3 mps 748 mmHg 84%
01:00 +13°C° 0 mm 3 mps 748 mmHg 85%
02:00 +13°C° 0 mm 3 mps 748 mmHg 86%
03:00 +13°C° 0 mm 3 mps 748 mmHg 86%
04:00 +14°C° 0 mm 3 mps 748 mmHg 86%
05:00 +14°C° 0 mm 3 mps 748 mmHg 86%
06:00 +17°C° 0 mm 3 mps 748 mmHg 82%
07:00 +19°C° 0 mm 4 mps 748 mmHg 79%
08:00 +20°C° 0 mm 5 mps 748 mmHg 75%
09:00 +21°C° 0 mm 5 mps 748 mmHg 73%
10:00 +22°C° 0 mm 5 mps 748 mmHg 72%
11:00 +23°C° 0 mm 5 mps 748 mmHg 70%
12:00 +25°C° 0 mm 5 mps 748 mmHg 71%
13:00 +25°C° 0 mm 5 mps 748 mmHg 71%
14:00 +26°C° 0 mm 5 mps 747 mmHg 71%
15:00 +26°C° 0 mm 4 mps 747 mmHg 73%
16:00 +25°C° 0 mm 4 mps 747 mmHg 75%
17:00 +25°C° 0 mm 4 mps 747 mmHg 77%
18:00 +24°C° 0 mm 3 mps 747 mmHg 81%
19:00 +21°C° 0 mm 3 mps 747 mmHg 85%
20:00 +20°C° 0 mm 3 mps 747 mmHg 88%
21:00 +19°C° 0 mm 3 mps 747 mmHg 89%
22:00 +19°C° 0 mm 3 mps 746 mmHg 89%
23:00 +18°C° 0 mm 3 mps 746 mmHg 90%

Day after tomorrow, 12 July, Sunday

Time Temperature Precipitation Wind Pressure Humidity
00:00 +18°C° 0 mm 3 mps 746 mmHg 90%
01:00 +18°C° 0 mm 3 mps 746 mmHg 90%
02:00 +17°C° 0 mm 3 mps 746 mmHg 90%
03:00 +17°C° 0 mm 2 mps 746 mmHg 90%
04:00 +18°C° 0 mm 2 mps 746 mmHg 89%
05:00 +18°C° 0 mm 2 mps 745 mmHg 88%
06:00 +19°C° 0 mm 2 mps 745 mmHg 84%
07:00 +21°C° 0 mm 2 mps 745 mmHg 79%
08:00 +24°C° 0 mm 2 mps 745 mmHg 75%
09:00 +25°C° 0 mm 2 mps 745 mmHg 71%
10:00 +26°C° 0 mm 2 mps 745 mmHg 68%
11:00 +26°C° 0 mm 2 mps 745 mmHg 65%
12:00 +27°C° 0 mm 3 mps 745 mmHg 64%
13:00 +27°C° 0 mm 3 mps 744 mmHg 63%
14:00 +27°C° 0 mm 3 mps 744 mmHg 62%
15:00 +27°C° 0 mm 3 mps 743 mmHg 65%
16:00 +27°C° 0 mm 2 mps 743 mmHg 67%
17:00 +26°C° 0 mm 2 mps 742 mmHg 70%
18:00 +25°C° 0 mm 2 mps 742 mmHg 73%
19:00 +23°C° 0 mm 2 mps 742 mmHg 76%
20:00 +21°C° 0 mm 1 mps 742 mmHg 80%
21:00 +20°C° 0 mm 2 mps 742 mmHg 81%
22:00 +19°C° 0 mm 2 mps 742 mmHg 82%
23:00 +18°C° 0 mm 2 mps 742 mmHg 83%

13 July, Monday

Time Temperature Precipitation Wind Pressure Humidity
00:00 +18°C° 0 mm 2 mps 741 mmHg 84%
01:00 +17°C° 0 mm 2 mps 741 mmHg 84%
02:00 +18°C° 0 mm 1 mps 740 mmHg 85%
03:00 +17°C° 0 mm 2 mps 740 mmHg 85%
04:00 +17°C° 0 mm 2 mps 740 mmHg 86%
05:00 +18°C° 0 mm 2 mps 739 mmHg 86%
06:00 +19°C° 0 mm 2 mps 739 mmHg 82%
07:00 +21°C° 0 mm 3 mps 739 mmHg 79%
08:00 +22°C° 0 mm 3 mps 739 mmHg 75%
09:00 +24°C° 0 mm 3 mps 738 mmHg 72%
10:00 +25°C° 0 mm 3 mps 738 mmHg 69%
11:00 +26°C° 0 mm 3 mps 738 mmHg 66%
12:00 +25°C° 1.7 mm 4 mps 737 mmHg 73%
13:00 +23°C° 1.7 mm 4 mps 737 mmHg 80%
14:00 +22°C° 1.7 mm 5 mps 737 mmHg 87%
15:00 +21°C° 1.5 mm 4 mps 736 mmHg 89%
16:00 +21°C° 1.5 mm 3 mps 735 mmHg 91%
17:00 +20°C° 1.5 mm 3 mps 735 mmHg 92%
18:00 +20°C° 0.4 mm 2 mps 735 mmHg 94%
19:00 +19°C° 0.4 mm 2 mps 734 mmHg 95%
20:00 +19°C° 0.4 mm 2 mps 734 mmHg 96%
21:00 +19°C° 0.4 mm 2 mps 734 mmHg 96%
22:00 +18°C° 0.4 mm 2 mps 733 mmHg 96%
23:00 +18°C° 0.4 mm 2 mps 733 mmHg 96%

14 July, Tuesday

Time Temperature Precipitation Wind Pressure Humidity
00:00 +18°C° 0.9 mm 2 mps 733 mmHg 97%
01:00 +18°C° 0.9 mm 2 mps 733 mmHg 97%
02:00 +18°C° 0.9 mm 3 mps 733 mmHg 98%
03:00 +18°C° 0 mm 3 mps 733 mmHg 97%
04:00 +18°C° 0 mm 4 mps 733 mmHg 97%
05:00 +18°C° 0 mm 4 mps 733 mmHg 96%
06:00 +18°C° 0 mm 4 mps 733 mmHg 95%
07:00 +18°C° 0 mm 4 mps 733 mmHg 94%
08:00 +19°C° 0 mm 4 mps 733 mmHg 93%
09:00 +19°C° 0.1 mm 4 mps 733 mmHg 90%
10:00 +20°C° 0.1 mm 4 mps 733 mmHg 86%
11:00 +21°C° 0.1 mm 4 mps 734 mmHg 83%
12:00 +21°C° 0.4 mm 4 mps 733 mmHg 84%
13:00 +21°C° 0.4 mm 5 mps 733 mmHg 84%
14:00 +21°C° 0.4 mm 5 mps 733 mmHg 84%
15:00 +20°C° 0.3 mm 6 mps 733 mmHg 84%
16:00 +20°C° 0.3 mm 6 mps 733 mmHg 84%
17:00 +19°C° 0.3 mm 6 mps 733 mmHg 84%
18:00 +17°C° 0.1 mm 5 mps 733 mmHg 87%
19:00 +16°C° 0.1 mm 5 mps 733 mmHg 89%
20:00 +15°C° 0.1 mm 5 mps 733 mmHg 92%
21:00 +14°C° 0.1 mm 5 mps 733 mmHg 92%
22:00 +14°C° 0.1 mm 5 mps 733 mmHg 92%
23:00 +14°C° 0.1 mm 5 mps 733 mmHg 92%

15 July, Wednesday

Time Temperature Precipitation Wind Pressure Humidity
00:00 +14°C° 0.3 mm 5 mps 733 mmHg 92%
01:00 +13°C° 0.3 mm 6 mps 733 mmHg 92%
02:00 +13°C° 0.3 mm 6 mps 733 mmHg 93%
03:00 +13°C° 0 mm 5 mps 733 mmHg 93%
04:00 +13°C° 0 mm 5 mps 733 mmHg 93%
05:00 +14°C° 0 mm 5 mps 733 mmHg 94%
06:00 +14°C° 0 mm 5 mps 733 mmHg 93%
07:00 +14°C° 0 mm 6 mps 733 mmHg 92%
08:00 +15°C° 0 mm 6 mps 734 mmHg 90%
09:00 +15°C° 0.1 mm 6 mps 734 mmHg 91%
10:00 +15°C° 0.1 mm 7 mps 734 mmHg 91%
11:00 +15°C° 0.1 mm 7 mps 735 mmHg 91%
12:00 +14°C° 0.2 mm 7 mps 735 mmHg 91%
13:00 +13°C° 0.2 mm 8 mps 736 mmHg 92%
14:00 +12°C° 0.2 mm 8 mps 736 mmHg 93%
15:00 +12°C° 0.1 mm 8 mps 737 mmHg 93%
16:00 +12°C° 0.1 mm 8 mps 737 mmHg 92%
17:00 +12°C° 0.1 mm 8 mps 738 mmHg 92%
18:00 +12°C° 0.1 mm 7 mps 738 mmHg 92%
19:00 +12°C° 0.1 mm 7 mps 738 mmHg 92%
20:00 +12°C° 0.1 mm 7 mps 739 mmHg 92%
21:00 +13°C° 0 mm 6 mps 739 mmHg 92%
22:00 +13°C° 0 mm 6 mps 739 mmHg 91%
23:00 +13°C° 0 mm 5 mps 739 mmHg 91%
Show more